Year,Month,Day,Hour,Minute,Value (Times are PST for temperature in C)
2019,10,30,00,00,-1.50
2019,10,30,00,01,-1.60
2019,10,30,00,02,-1.60
2019,10,30,00,03,-1.60
2019,10,30,00,04,-1.60
2019,10,30,00,05,-1.60
2019,10,30,00,06,-1.60
2019,10,30,00,07,-1.60
2019,10,30,00,08,-1.60
2019,10,30,00,09,-1.60
2019,10,30,00,10,-1.60
2019,10,30,00,11,-1.60
2019,10,30,00,12,-1.60
2019,10,30,00,13,-1.60
2019,10,30,00,14,-1.60
2019,10,30,00,15,-1.60
2019,10,30,00,16,-1.60
2019,10,30,00,17,-1.60
2019,10,30,00,18,-1.60
2019,10,30,00,19,-1.60
2019,10,30,00,20,-1.60
2019,10,30,00,21,-1.60
2019,10,30,00,22,-1.60
2019,10,30,00,23,-1.60
2019,10,30,00,24,-1.60
2019,10,30,00,25,-1.60
2019,10,30,00,26,-1.60
2019,10,30,00,27,-1.60
2019,10,30,00,28,-1.60
2019,10,30,00,29,-1.60
2019,10,30,00,30,-1.60
2019,10,30,00,31,-1.60
2019,10,30,00,32,-1.60
2019,10,30,00,33,-1.60
2019,10,30,00,34,-1.60
2019,10,30,00,35,-1.60
2019,10,30,00,36,-1.60
2019,10,30,00,37,-1.60
2019,10,30,00,38,-1.60
2019,10,30,00,39,-1.60
2019,10,30,00,40,-1.60
2019,10,30,00,41,-1.60
2019,10,30,00,42,-1.60
2019,10,30,00,43,-1.60
2019,10,30,00,44,-1.60
2019,10,30,00,45,-1.60
2019,10,30,00,46,-1.60
2019,10,30,00,47,-1.60
2019,10,30,00,48,-1.60
2019,10,30,00,49,-1.60
2019,10,30,00,50,-1.60
2019,10,30,00,51,-1.60
2019,10,30,00,52,-1.60
2019,10,30,00,53,-1.60
2019,10,30,00,54,-1.60
2019,10,30,00,55,-1.60
2019,10,30,00,56,-1.60
2019,10,30,00,57,-1.60
2019,10,30,00,58,-1.60
2019,10,30,00,59,-1.60
2019,10,30,01,00,-1.60
2019,10,30,01,01,-1.60
2019,10,30,01,02,-1.60
2019,10,30,01,03,-1.60
2019,10,30,01,04,-1.60
2019,10,30,01,05,-1.60
2019,10,30,01,06,-1.60
2019,10,30,01,07,-1.60
2019,10,30,01,08,-1.60
2019,10,30,01,09,-1.60
2019,10,30,01,10,-1.60
2019,10,30,01,11,-1.60
2019,10,30,01,12,-1.60
2019,10,30,01,13,-1.60
2019,10,30,01,14,-1.60
2019,10,30,01,15,-1.60
2019,10,30,01,16,-1.60
2019,10,30,01,17,-1.60
2019,10,30,01,18,-1.60
2019,10,30,01,19,-1.60
2019,10,30,01,20,-1.60
2019,10,30,01,21,-1.60
2019,10,30,01,22,-1.60
2019,10,30,01,23,-1.60
2019,10,30,01,24,-1.60
2019,10,30,01,25,-1.60
2019,10,30,01,26,-1.60
2019,10,30,01,27,-1.60
2019,10,30,01,28,-1.60
2019,10,30,01,29,-1.70
2019,10,30,01,30,-1.70
2019,10,30,01,31,-1.70
2019,10,30,01,32,-1.70
2019,10,30,01,33,-1.70
2019,10,30,01,34,-1.70
2019,10,30,01,35,-1.70
2019,10,30,01,36,-1.70
2019,10,30,01,37,-1.70
2019,10,30,01,38,-1.70
2019,10,30,01,39,-1.70
2019,10,30,01,40,-1.70
2019,10,30,01,41,-1.70
2019,10,30,01,42,-1.70
2019,10,30,01,43,-1.70
2019,10,30,01,44,-1.70
2019,10,30,01,45,-1.70
2019,10,30,01,46,-1.70
2019,10,30,01,47,-1.70
2019,10,30,01,48,-1.70
2019,10,30,01,49,-1.70
2019,10,30,01,50,-1.70
2019,10,30,01,51,-1.70
2019,10,30,01,52,-1.70
2019,10,30,01,53,-1.70
2019,10,30,01,54,-1.70
2019,10,30,01,55,-1.70
2019,10,30,01,56,-1.70
2019,10,30,01,57,-1.70
2019,10,30,01,58,-1.60
2019,10,30,01,59,-1.60
2019,10,30,02,00,-1.60
2019,10,30,02,01,-1.70
2019,10,30,02,02,-1.70
2019,10,30,02,03,-1.70
2019,10,30,02,04,-1.70
2019,10,30,02,05,-1.70
2019,10,30,02,06,-1.70
2019,10,30,02,07,-1.70
2019,10,30,02,08,-1.70
2019,10,30,02,09,-1.70
2019,10,30,02,10,-1.70
2019,10,30,02,11,-1.70
2019,10,30,02,12,-1.70
2019,10,30,02,13,-1.70
2019,10,30,02,14,-1.70
2019,10,30,02,15,-1.70
2019,10,30,02,16,-1.70
2019,10,30,02,17,-1.70
2019,10,30,02,18,-1.70
2019,10,30,02,19,-1.70
2019,10,30,02,20,-1.70
2019,10,30,02,21,-1.70
2019,10,30,02,22,-1.70
2019,10,30,02,23,-1.70
2019,10,30,02,24,-1.70
2019,10,30,02,25,-1.70
2019,10,30,02,26,-1.70
2019,10,30,02,27,-1.70
2019,10,30,02,28,-1.70
2019,10,30,02,29,-1.70
2019,10,30,02,30,-1.70
2019,10,30,02,31,-1.70
2019,10,30,02,32,-1.70
2019,10,30,02,33,-1.70
2019,10,30,02,34,-1.70
2019,10,30,02,35,-1.70
2019,10,30,02,36,-1.70
2019,10,30,02,37,-1.70
2019,10,30,02,38,-1.70
2019,10,30,02,39,-1.70
2019,10,30,02,40,-1.70
2019,10,30,02,41,-1.70
2019,10,30,02,42,-1.70
2019,10,30,02,43,-1.70
2019,10,30,02,44,-1.70
2019,10,30,02,45,-1.70
2019,10,30,02,46,-1.70
2019,10,30,02,47,-1.70
2019,10,30,02,48,-1.70
2019,10,30,02,49,-1.70
2019,10,30,02,50,-1.70
2019,10,30,02,51,-1.70
2019,10,30,02,52,-1.70
2019,10,30,02,53,-1.70
2019,10,30,02,54,-1.70
2019,10,30,02,55,-1.70
2019,10,30,02,56,-1.60
2019,10,30,02,57,-1.60
2019,10,30,02,58,-1.60
2019,10,30,02,59,-1.60
2019,10,30,03,00,-1.60
2019,10,30,03,01,-1.60
2019,10,30,03,02,-1.60
2019,10,30,03,03,-1.60
2019,10,30,03,04,-1.50
2019,10,30,03,05,-1.50
2019,10,30,03,06,-1.50
2019,10,30,03,07,-1.50
2019,10,30,03,08,-1.50
2019,10,30,03,09,-1.50
2019,10,30,03,10,-1.50
2019,10,30,03,11,-1.40
2019,10,30,03,12,-1.40
2019,10,30,03,13,-1.40
2019,10,30,03,14,-1.40
2019,10,30,03,15,-1.40
2019,10,30,03,16,-1.40
2019,10,30,03,17,-1.40
2019,10,30,03,18,-1.40
2019,10,30,03,19,-1.40
2019,10,30,03,20,-1.40
2019,10,30,03,21,-1.40
2019,10,30,03,22,-1.40
2019,10,30,03,23,-1.40
2019,10,30,03,24,-1.40
2019,10,30,03,25,-1.40
2019,10,30,03,26,-1.40
2019,10,30,03,27,-1.40
2019,10,30,03,28,-1.40
2019,10,30,03,29,-1.40
2019,10,30,03,30,-1.40
2019,10,30,03,31,-1.40
2019,10,30,03,32,-1.50
2019,10,30,03,33,-1.50
2019,10,30,03,34,-1.50
2019,10,30,03,35,-1.50
2019,10,30,03,36,-1.50
2019,10,30,03,37,-1.50
2019,10,30,03,38,-1.50
2019,10,30,03,39,-1.50
2019,10,30,03,40,-1.50
2019,10,30,03,41,-1.50
2019,10,30,03,42,-1.50
2019,10,30,03,43,-1.50
2019,10,30,03,44,-1.50
2019,10,30,03,45,-1.50
2019,10,30,03,46,-1.50
2019,10,30,03,47,-1.40
2019,10,30,03,48,-1.40
2019,10,30,03,49,-1.40
2019,10,30,03,50,-1.40
2019,10,30,03,51,-1.40
2019,10,30,03,52,-1.40
2019,10,30,03,53,-1.40
2019,10,30,03,54,-1.40
2019,10,30,03,55,-1.40
2019,10,30,03,56,-1.40
2019,10,30,03,57,-1.40
2019,10,30,03,58,-1.40
2019,10,30,03,59,-1.40
2019,10,30,04,00,-1.40
2019,10,30,04,01,-1.40
2019,10,30,04,02,-1.40
2019,10,30,04,03,-1.40
2019,10,30,04,04,-1.40
2019,10,30,04,05,-1.40
2019,10,30,04,06,-1.40
2019,10,30,04,07,-1.40
2019,10,30,04,08,-1.40
2019,10,30,04,09,-1.40
2019,10,30,04,10,-1.40
2019,10,30,04,11,-1.40
2019,10,30,04,12,-1.40
2019,10,30,04,13,-1.40
2019,10,30,04,14,-1.40
2019,10,30,04,15,-1.40
2019,10,30,04,16,-1.40
2019,10,30,04,17,-1.40
2019,10,30,04,18,-1.40
2019,10,30,04,19,-1.40
2019,10,30,04,20,-1.40
2019,10,30,04,21,-1.40
2019,10,30,04,22,-1.40
2019,10,30,04,23,-1.40
2019,10,30,04,24,-1.40
2019,10,30,04,25,-1.40
2019,10,30,04,26,-1.40
2019,10,30,04,27,-1.40
2019,10,30,04,28,-1.40
2019,10,30,04,29,-1.40
2019,10,30,04,30,-1.40
2019,10,30,04,31,-1.40
2019,10,30,04,32,-1.40
2019,10,30,04,33,-1.40
2019,10,30,04,34,-1.30
2019,10,30,04,35,-1.30
2019,10,30,04,36,-1.30
2019,10,30,04,37,-1.30
2019,10,30,04,38,-1.30
2019,10,30,04,39,-1.30
2019,10,30,04,40,-1.30
2019,10,30,04,41,-1.30
2019,10,30,04,42,-1.30
2019,10,30,04,43,-1.30
2019,10,30,04,44,-1.30
2019,10,30,04,45,-1.30
2019,10,30,04,46,-1.30
2019,10,30,04,47,-1.30
2019,10,30,04,48,-1.30
2019,10,30,04,49,-1.30
2019,10,30,04,50,-1.30
2019,10,30,04,51,-1.30
2019,10,30,04,52,-1.40
2019,10,30,04,53,-1.30
2019,10,30,04,54,-1.40
2019,10,30,04,55,-1.40
2019,10,30,04,56,-1.40
2019,10,30,04,57,-1.40
2019,10,30,04,58,-1.40
2019,10,30,04,59,-1.40
2019,10,30,05,00,-1.40
2019,10,30,05,01,-1.30
2019,10,30,05,02,-1.30
2019,10,30,05,03,-1.30
2019,10,30,05,04,-1.30
2019,10,30,05,05,-1.30
2019,10,30,05,06,-1.30
2019,10,30,05,07,-1.30
2019,10,30,05,08,-1.30
2019,10,30,05,09,-1.30
2019,10,30,05,10,-1.30
2019,10,30,05,11,-1.30
2019,10,30,05,12,-1.30
2019,10,30,05,13,-1.30
2019,10,30,05,14,-1.30
2019,10,30,05,15,-1.20
2019,10,30,05,16,-1.20
2019,10,30,05,17,-1.30
2019,10,30,05,18,-1.30
2019,10,30,05,19,-1.20
2019,10,30,05,20,-1.20
2019,10,30,05,21,-1.20
2019,10,30,05,22,-1.20
2019,10,30,05,23,-1.20
2019,10,30,05,24,-1.20
2019,10,30,05,25,-1.20
2019,10,30,05,26,-1.20
2019,10,30,05,27,-1.20
2019,10,30,05,28,-1.20
2019,10,30,05,29,-1.20
2019,10,30,05,30,-1.20
2019,10,30,05,31,-1.20
2019,10,30,05,32,-1.30
2019,10,30,05,33,-1.30
2019,10,30,05,34,-1.30
2019,10,30,05,35,-1.30
2019,10,30,05,36,-1.30
2019,10,30,05,37,-1.30
2019,10,30,05,38,-1.30
2019,10,30,05,39,-1.30
2019,10,30,05,40,-1.30
2019,10,30,05,41,-1.30
2019,10,30,05,42,-1.30
2019,10,30,05,43,-1.30
2019,10,30,05,44,-1.40
2019,10,30,05,45,-1.40
2019,10,30,05,46,-1.40
2019,10,30,05,47,-1.40
2019,10,30,05,48,-1.40
2019,10,30,05,49,-1.40
2019,10,30,05,50,-1.40
2019,10,30,05,51,-1.40
2019,10,30,05,52,-1.40
2019,10,30,05,53,-1.40
2019,10,30,05,54,-1.40
2019,10,30,05,55,-1.40
2019,10,30,05,56,-1.40
2019,10,30,05,57,-1.40
2019,10,30,05,58,-1.40
2019,10,30,05,59,-1.40
2019,10,30,06,00,-1.40
2019,10,30,06,01,-1.40
2019,10,30,06,02,-1.40
2019,10,30,06,03,-1.40
2019,10,30,06,04,-1.40
2019,10,30,06,05,-1.40
2019,10,30,06,06,-1.40
2019,10,30,06,07,-1.40
2019,10,30,06,08,-1.40
2019,10,30,06,09,-1.40
2019,10,30,06,10,-1.40
2019,10,30,06,11,-1.40
2019,10,30,06,12,-1.40
2019,10,30,06,13,-1.40
2019,10,30,06,14,-1.40
2019,10,30,06,15,-1.40
2019,10,30,06,16,-1.40
2019,10,30,06,17,-1.40
2019,10,30,06,18,-1.40
2019,10,30,06,19,-1.40
2019,10,30,06,20,-1.40
2019,10,30,06,21,-1.40
2019,10,30,06,22,-1.40
2019,10,30,06,23,-1.40
2019,10,30,06,24,-1.40
2019,10,30,06,25,-1.40
2019,10,30,06,26,-1.40
2019,10,30,06,27,-1.40
2019,10,30,06,28,-1.40
2019,10,30,06,29,-1.40
2019,10,30,06,30,-1.40
2019,10,30,06,31,-1.40
2019,10,30,06,32,-1.40
2019,10,30,06,33,-1.40
2019,10,30,06,34,-1.40
2019,10,30,06,35,-1.40
2019,10,30,06,36,-1.40
2019,10,30,06,37,-1.40
2019,10,30,06,38,-1.40
2019,10,30,06,39,-1.40
2019,10,30,06,40,-1.40
2019,10,30,06,41,-1.40
2019,10,30,06,42,-1.50
2019,10,30,06,43,-1.50
2019,10,30,06,44,-1.50
2019,10,30,06,45,-1.50
2019,10,30,06,46,-1.50
2019,10,30,06,47,-1.50
2019,10,30,06,48,-1.50
2019,10,30,06,49,-1.50
2019,10,30,06,50,-1.50
2019,10,30,06,51,-1.50
2019,10,30,06,52,-1.50
2019,10,30,06,53,-1.50
2019,10,30,06,54,-1.50
2019,10,30,06,55,-1.50
2019,10,30,06,56,-1.50
2019,10,30,06,57,-1.50
2019,10,30,06,58,-1.50
2019,10,30,06,59,-1.50
2019,10,30,07,00,-1.50
2019,10,30,07,01,-1.40
2019,10,30,07,02,-1.40
2019,10,30,07,03,-1.40
2019,10,30,07,04,-1.40
2019,10,30,07,05,-1.40
2019,10,30,07,06,-1.40
2019,10,30,07,07,-1.40
2019,10,30,07,08,-1.40
2019,10,30,07,09,-1.40
2019,10,30,07,10,-1.40
2019,10,30,07,11,-1.40
2019,10,30,07,12,-1.40
2019,10,30,07,13,-1.40
2019,10,30,07,14,-1.40
2019,10,30,07,15,-1.40
2019,10,30,07,16,-1.40
2019,10,30,07,17,-1.40
2019,10,30,07,18,-1.40
2019,10,30,07,19,-1.40
2019,10,30,07,20,-1.50
2019,10,30,07,21,-1.40
2019,10,30,07,22,-1.50
2019,10,30,07,23,-1.50
2019,10,30,07,24,-1.50
2019,10,30,07,25,-1.50
2019,10,30,07,26,-1.50
2019,10,30,07,27,-1.50
2019,10,30,07,28,-1.50
2019,10,30,07,29,-1.50
2019,10,30,07,30,-1.50
2019,10,30,07,31,-1.50
2019,10,30,07,32,-1.50
2019,10,30,07,33,-1.50
2019,10,30,07,34,-1.50
2019,10,30,07,35,-1.50
2019,10,30,07,36,-1.50
2019,10,30,07,37,-1.50
2019,10,30,07,38,-1.40
2019,10,30,07,39,-1.40
2019,10,30,07,40,-1.40
2019,10,30,07,41,-1.40
2019,10,30,07,42,-1.40
2019,10,30,07,43,-1.40
2019,10,30,07,44,-1.40
2019,10,30,07,45,-1.40
2019,10,30,07,46,-1.40
2019,10,30,07,47,-1.40
2019,10,30,07,48,-1.40
2019,10,30,07,49,-1.40
2019,10,30,07,50,-1.40
2019,10,30,07,51,-1.40
2019,10,30,07,52,-1.40
2019,10,30,07,53,-1.40
2019,10,30,07,54,-1.40
2019,10,30,07,55,-1.40
2019,10,30,07,56,-1.40
2019,10,30,07,57,-1.40
2019,10,30,07,58,-1.50
2019,10,30,07,59,-1.50
2019,10,30,08,00,-1.50
2019,10,30,08,01,-1.50
2019,10,30,08,02,-1.50
2019,10,30,08,03,-1.50
2019,10,30,08,04,-1.50
2019,10,30,08,05,-1.50
2019,10,30,08,06,-1.50
2019,10,30,08,07,-1.50
2019,10,30,08,08,-1.50
2019,10,30,08,09,-1.50
2019,10,30,08,10,-1.50
2019,10,30,08,11,-1.50
2019,10,30,08,12,-1.50
2019,10,30,08,13,-1.50
2019,10,30,08,14,-1.50
2019,10,30,08,15,-1.50
2019,10,30,08,16,-1.50
2019,10,30,08,17,-1.50
2019,10,30,08,18,-1.50
2019,10,30,08,19,-1.50
2019,10,30,08,20,-1.40
2019,10,30,08,21,-1.40
2019,10,30,08,22,-1.40
2019,10,30,08,23,-1.40
2019,10,30,08,24,-1.40
2019,10,30,08,25,-1.40
2019,10,30,08,26,-1.40
2019,10,30,08,27,-1.40
2019,10,30,08,28,-1.40
2019,10,30,08,29,-1.40
2019,10,30,08,30,-1.40
2019,10,30,08,31,-1.40
2019,10,30,08,32,-1.40
2019,10,30,08,33,-1.40
2019,10,30,08,34,-1.40
2019,10,30,08,35,-1.40
2019,10,30,08,36,-1.40
2019,10,30,08,37,-1.30
2019,10,30,08,38,-1.30
2019,10,30,08,39,-1.30
2019,10,30,08,40,-1.30
2019,10,30,08,41,-1.30
2019,10,30,08,42,-1.30
2019,10,30,08,43,-1.30
2019,10,30,08,44,-1.20
2019,10,30,08,45,-1.20
2019,10,30,08,46,-1.20
2019,10,30,08,47,-1.20
2019,10,30,08,48,-1.20
2019,10,30,08,49,-1.20
2019,10,30,08,50,-1.20
2019,10,30,08,51,-1.10
2019,10,30,08,52,-1.10
2019,10,30,08,53,-1.10
2019,10,30,08,54,-1.10
2019,10,30,08,55,-1.00
2019,10,30,08,56,-1.00
2019,10,30,08,57,-1.00
2019,10,30,08,58,-0.90
2019,10,30,08,59,-0.90
2019,10,30,09,00,-0.90
2019,10,30,09,01,-0.90
2019,10,30,09,02,-0.90
2019,10,30,09,03,-0.80
2019,10,30,09,04,-0.80
2019,10,30,09,05,-0.80
2019,10,30,09,06,-0.80
2019,10,30,09,07,-0.70
2019,10,30,09,08,-0.70
2019,10,30,09,09,-0.70
2019,10,30,09,10,-0.60
2019,10,30,09,11,-0.60
2019,10,30,09,12,-0.60
2019,10,30,09,13,-0.50
2019,10,30,09,14,-0.50
2019,10,30,09,15,-0.40
2019,10,30,09,16,-0.40
2019,10,30,09,17,-0.30
2019,10,30,09,18,-0.30
2019,10,30,09,19,-0.20
2019,10,30,09,20,-0.20
2019,10,30,09,21,-0.10
2019,10,30,09,22,-0.10
2019,10,30,09,23,0.00
2019,10,30,09,24,0.10
2019,10,30,09,25,0.10
2019,10,30,09,26,0.20
2019,10,30,09,27,0.30
2019,10,30,09,28,0.30
2019,10,30,09,29,0.40
2019,10,30,09,30,0.50
2019,10,30,09,31,0.60
2019,10,30,09,32,0.70
2019,10,30,09,33,0.80
2019,10,30,09,34,0.80
2019,10,30,09,35,0.90
2019,10,30,09,36,1.00
2019,10,30,09,37,1.10
2019,10,30,09,38,1.20
2019,10,30,09,39,1.30
2019,10,30,09,40,1.40
2019,10,30,09,41,1.50
2019,10,30,09,42,1.60
2019,10,30,09,43,1.70
2019,10,30,09,44,1.80
2019,10,30,09,45,1.90
2019,10,30,09,46,2.00
2019,10,30,09,47,2.10
2019,10,30,09,48,2.20
2019,10,30,09,49,2.20
2019,10,30,09,50,2.30
2019,10,30,09,51,2.40
2019,10,30,09,52,2.50
2019,10,30,09,53,2.60
2019,10,30,09,54,2.70
2019,10,30,09,55,2.80
2019,10,30,09,56,2.90
2019,10,30,09,57,3.00
2019,10,30,09,58,3.20
2019,10,30,09,59,3.20
2019,10,30,10,00,3.30
2019,10,30,10,01,3.40
2019,10,30,10,02,3.50
2019,10,30,10,03,3.60
2019,10,30,10,04,3.70
2019,10,30,10,05,3.80
2019,10,30,10,06,3.80
2019,10,30,10,07,3.90
2019,10,30,10,08,3.90
2019,10,30,10,09,4.00
2019,10,30,10,10,4.00
2019,10,30,10,11,4.00
2019,10,30,10,12,4.10
2019,10,30,10,13,4.10
2019,10,30,10,14,4.20
2019,10,30,10,15,4.30
2019,10,30,10,16,4.30
2019,10,30,10,17,4.40
2019,10,30,10,18,4.40
2019,10,30,10,19,4.50
2019,10,30,10,20,4.60
2019,10,30,10,21,4.60
2019,10,30,10,22,4.70
2019,10,30,10,23,4.80
2019,10,30,10,24,4.80
2019,10,30,10,25,4.90
2019,10,30,10,26,5.00
2019,10,30,10,27,5.00
2019,10,30,10,28,5.10
2019,10,30,10,29,5.20
2019,10,30,10,30,5.20
2019,10,30,10,31,5.30
2019,10,30,10,32,5.40
2019,10,30,10,33,5.50
2019,10,30,10,34,5.60
2019,10,30,10,35,5.70
2019,10,30,10,36,5.70
2019,10,30,10,37,5.80
2019,10,30,10,38,5.80
2019,10,30,10,39,5.90
2019,10,30,10,40,6.00
2019,10,30,10,41,6.10
2019,10,30,10,42,6.10
2019,10,30,10,43,6.20
2019,10,30,10,44,6.30
2019,10,30,10,45,6.30
2019,10,30,10,46,6.40
2019,10,30,10,47,6.40
2019,10,30,10,48,6.50
2019,10,30,10,49,6.50
2019,10,30,10,50,6.60
2019,10,30,10,51,6.60
2019,10,30,10,52,6.70
2019,10,30,10,53,6.70
2019,10,30,10,54,6.70
2019,10,30,10,55,6.70
2019,10,30,10,56,6.80
2019,10,30,10,57,6.80
2019,10,30,10,58,6.90
2019,10,30,10,59,6.90
2019,10,30,11,00,7.00
2019,10,30,11,01,7.00
2019,10,30,11,02,7.10
2019,10,30,11,03,7.10
2019,10,30,11,04,7.20
2019,10,30,11,05,7.20
2019,10,30,11,06,7.30
2019,10,30,11,07,7.30
2019,10,30,11,08,7.40
2019,10,30,11,09,7.40
2019,10,30,11,10,7.50
2019,10,30,11,11,7.50
2019,10,30,11,12,7.60
2019,10,30,11,13,7.60
2019,10,30,11,14,7.60
2019,10,30,11,15,7.70
2019,10,30,11,16,7.70
2019,10,30,11,17,7.70
2019,10,30,11,18,7.70
2019,10,30,11,19,7.70
2019,10,30,11,20,7.80
2019,10,30,11,21,7.80
2019,10,30,11,22,7.80
2019,10,30,11,23,7.80
2019,10,30,11,24,7.80
2019,10,30,11,25,7.80
2019,10,30,11,26,7.90
2019,10,30,11,27,7.90
2019,10,30,11,28,7.90
2019,10,30,11,29,8.00
2019,10,30,11,30,8.00
2019,10,30,11,31,8.10
2019,10,30,11,32,8.10
2019,10,30,11,33,8.10
2019,10,30,11,34,8.10
2019,10,30,11,35,8.20
2019,10,30,11,36,8.20
2019,10,30,11,37,8.20
2019,10,30,11,38,8.30
2019,10,30,11,39,8.30
2019,10,30,11,40,8.30
2019,10,30,11,41,8.30
2019,10,30,11,42,8.30
2019,10,30,11,43,8.40
2019,10,30,11,44,8.40
2019,10,30,11,45,8.40
2019,10,30,11,46,8.40
2019,10,30,11,47,8.30
2019,10,30,11,48,8.30
2019,10,30,11,49,8.30
2019,10,30,11,50,8.20
2019,10,30,11,51,8.20
2019,10,30,11,52,8.20
2019,10,30,11,53,8.20
2019,10,30,11,54,8.20
2019,10,30,11,55,8.30
2019,10,30,11,56,8.30
2019,10,30,11,57,8.20
2019,10,30,11,58,8.30
2019,10,30,11,59,8.30
2019,10,30,12,00,8.30
2019,10,30,12,01,8.30
2019,10,30,12,02,8.30
2019,10,30,12,03,8.30
2019,10,30,12,04,8.20
2019,10,30,12,05,8.20
2019,10,30,12,06,8.20
2019,10,30,12,07,8.20
2019,10,30,12,08,8.20
2019,10,30,12,09,8.20
2019,10,30,12,10,8.20
2019,10,30,12,11,8.30
2019,10,30,12,12,8.30
2019,10,30,12,13,8.30
2019,10,30,12,14,8.30
2019,10,30,12,15,8.40
2019,10,30,12,16,8.40
2019,10,30,12,17,8.40
2019,10,30,12,18,8.40
2019,10,30,12,19,8.40
2019,10,30,12,20,8.40
2019,10,30,12,21,8.50
2019,10,30,12,22,8.50
2019,10,30,12,23,8.50
2019,10,30,12,24,8.60
2019,10,30,12,25,8.60
2019,10,30,12,26,8.60
2019,10,30,12,27,8.60
2019,10,30,12,28,8.60
2019,10,30,12,29,8.60
2019,10,30,12,30,8.70
2019,10,30,12,31,8.70
2019,10,30,12,32,8.60
2019,10,30,12,33,8.60
2019,10,30,12,34,8.60
2019,10,30,12,35,8.50
2019,10,30,12,36,8.50
2019,10,30,12,37,8.50
2019,10,30,12,38,8.50
2019,10,30,12,39,8.50
2019,10,30,12,40,8.50
2019,10,30,12,41,8.50
2019,10,30,12,42,8.60
2019,10,30,12,43,8.60
2019,10,30,12,44,8.60
2019,10,30,12,45,8.60
2019,10,30,12,46,8.60
2019,10,30,12,47,8.60
2019,10,30,12,48,8.60
2019,10,30,12,49,8.60
2019,10,30,12,50,8.60
2019,10,30,12,51,8.60
2019,10,30,12,52,8.60
2019,10,30,12,53,8.60
2019,10,30,12,54,8.60
2019,10,30,12,55,8.60
2019,10,30,12,56,8.60
2019,10,30,12,57,8.60
2019,10,30,12,58,8.60
2019,10,30,12,59,8.60
2019,10,30,13,00,8.60
2019,10,30,13,01,8.60
2019,10,30,13,02,8.60
2019,10,30,13,03,8.60
2019,10,30,13,04,8.60
2019,10,30,13,05,8.60
2019,10,30,13,06,8.70
2019,10,30,13,07,8.70
2019,10,30,13,08,8.70
2019,10,30,13,09,8.70
2019,10,30,13,10,8.70
2019,10,30,13,11,8.70
2019,10,30,13,12,8.70
2019,10,30,13,13,8.60
2019,10,30,13,14,8.60
2019,10,30,13,15,8.70
2019,10,30,13,16,8.70
2019,10,30,13,17,8.70
2019,10,30,13,18,8.70
2019,10,30,13,19,8.70
2019,10,30,13,20,8.80
2019,10,30,13,21,8.80
2019,10,30,13,22,8.80
2019,10,30,13,23,8.80
2019,10,30,13,24,8.80
2019,10,30,13,25,8.80
2019,10,30,13,26,8.90
2019,10,30,13,27,8.90
2019,10,30,13,28,8.80
2019,10,30,13,29,8.80
2019,10,30,13,30,8.80
2019,10,30,13,31,8.80
2019,10,30,13,32,8.80
2019,10,30,13,33,8.80
2019,10,30,13,34,8.80
2019,10,30,13,35,8.80
2019,10,30,13,36,8.80
2019,10,30,13,37,8.80
2019,10,30,13,38,8.80
2019,10,30,13,39,8.80
2019,10,30,13,40,8.80
2019,10,30,13,41,8.80
2019,10,30,13,42,8.80
2019,10,30,13,43,8.90
2019,10,30,13,44,8.90
2019,10,30,13,45,8.90
2019,10,30,13,46,8.90
2019,10,30,13,47,8.90
2019,10,30,13,48,8.90
2019,10,30,13,49,8.80
2019,10,30,13,50,8.80
2019,10,30,13,51,8.80
2019,10,30,13,52,8.80
2019,10,30,13,53,8.80
2019,10,30,13,54,8.80
2019,10,30,13,55,8.80
2019,10,30,13,56,8.80
2019,10,30,13,57,8.80
2019,10,30,13,58,8.80
2019,10,30,13,59,8.80
2019,10,30,14,00,8.80
2019,10,30,14,01,8.80
2019,10,30,14,02,8.80
2019,10,30,14,03,8.80
2019,10,30,14,04,8.80
2019,10,30,14,05,8.80
2019,10,30,14,06,8.80
2019,10,30,14,07,8.70
2019,10,30,14,08,8.70
2019,10,30,14,09,8.70
2019,10,30,14,10,8.70
2019,10,30,14,11,8.70
2019,10,30,14,12,8.70
2019,10,30,14,13,8.70
2019,10,30,14,14,8.70
2019,10,30,14,15,8.70
2019,10,30,14,16,8.70
2019,10,30,14,17,8.60
2019,10,30,14,18,8.60
2019,10,30,14,19,8.60
2019,10,30,14,20,8.60
2019,10,30,14,21,8.60
2019,10,30,14,22,8.60
2019,10,30,14,23,8.50
2019,10,30,14,24,8.50
2019,10,30,14,25,8.50
2019,10,30,14,26,8.50
2019,10,30,14,27,8.40
2019,10,30,14,28,8.40
2019,10,30,14,29,8.40
2019,10,30,14,30,8.40
2019,10,30,14,31,8.40
2019,10,30,14,32,8.40
2019,10,30,14,33,8.40
2019,10,30,14,34,8.40
2019,10,30,14,35,8.30
2019,10,30,14,36,8.30
2019,10,30,14,37,8.30
2019,10,30,14,38,8.30
2019,10,30,14,39,8.30
2019,10,30,14,40,8.30
2019,10,30,14,41,8.30
2019,10,30,14,42,8.30
2019,10,30,14,43,8.30
2019,10,30,14,44,8.30
2019,10,30,14,45,8.30
2019,10,30,14,46,8.30
2019,10,30,14,47,8.30
2019,10,30,14,48,8.30
2019,10,30,14,49,8.30
2019,10,30,14,50,8.20
2019,10,30,14,51,8.20
2019,10,30,14,52,8.20
2019,10,30,14,53,8.20
2019,10,30,14,54,8.20
2019,10,30,14,55,8.20
2019,10,30,14,56,8.20
2019,10,30,14,57,8.20
2019,10,30,14,58,8.20
2019,10,30,14,59,8.20
2019,10,30,15,00,8.10
2019,10,30,15,01,8.10
2019,10,30,15,02,8.10
2019,10,30,15,03,8.10
2019,10,30,15,04,8.10
2019,10,30,15,05,8.10
2019,10,30,15,06,8.10
2019,10,30,15,07,8.00
2019,10,30,15,08,8.00
2019,10,30,15,09,8.00
2019,10,30,15,10,7.90
2019,10,30,15,11,7.90
2019,10,30,15,12,7.90
2019,10,30,15,13,7.80
2019,10,30,15,14,7.80
2019,10,30,15,15,7.80
2019,10,30,15,16,7.70
2019,10,30,15,17,7.70
2019,10,30,15,18,7.70
2019,10,30,15,19,7.60
2019,10,30,15,20,7.60
2019,10,30,15,21,7.50
2019,10,30,15,22,7.50
2019,10,30,15,23,7.50
2019,10,30,15,24,7.40
2019,10,30,15,25,7.40
2019,10,30,15,26,7.30
2019,10,30,15,27,7.30
2019,10,30,15,28,7.30
2019,10,30,15,29,7.20
2019,10,30,15,30,7.20
2019,10,30,15,31,7.20
2019,10,30,15,32,7.10
2019,10,30,15,33,7.10
2019,10,30,15,34,7.10
2019,10,30,15,35,7.00
2019,10,30,15,36,7.00
2019,10,30,15,37,6.90
2019,10,30,15,38,6.90
2019,10,30,15,39,6.90
2019,10,30,15,40,6.80
2019,10,30,15,41,6.80
2019,10,30,15,42,6.80
2019,10,30,15,43,6.70
2019,10,30,15,44,6.70
2019,10,30,15,45,6.70
2019,10,30,15,46,6.70
2019,10,30,15,47,6.60
2019,10,30,15,48,6.60
2019,10,30,15,49,6.60
2019,10,30,15,50,6.50
2019,10,30,15,51,6.50
2019,10,30,15,52,6.50
2019,10,30,15,53,6.40
2019,10,30,15,54,6.40
2019,10,30,15,55,6.30
2019,10,30,15,56,6.30
2019,10,30,15,57,6.30
2019,10,30,15,58,6.30
2019,10,30,15,59,6.20
2019,10,30,16,00,6.20
2019,10,30,16,01,6.20
2019,10,30,16,02,6.20
2019,10,30,16,03,6.20
2019,10,30,16,04,6.10
2019,10,30,16,05,6.10
2019,10,30,16,06,6.10
2019,10,30,16,07,6.10
2019,10,30,16,08,6.00
2019,10,30,16,09,6.00
2019,10,30,16,10,6.00
2019,10,30,16,11,5.90
2019,10,30,16,12,5.90
2019,10,30,16,13,5.90
2019,10,30,16,14,5.80
2019,10,30,16,15,5.80
2019,10,30,16,16,5.80
2019,10,30,16,17,5.80
2019,10,30,16,18,5.80
2019,10,30,16,19,5.70
2019,10,30,16,20,5.70
2019,10,30,16,21,5.70
2019,10,30,16,22,5.70
2019,10,30,16,23,5.70
2019,10,30,16,24,5.60
2019,10,30,16,25,5.60
2019,10,30,16,26,5.60
2019,10,30,16,27,5.60
2019,10,30,16,28,5.60
2019,10,30,16,29,5.60
2019,10,30,16,30,5.60
2019,10,30,16,31,5.50
2019,10,30,16,32,5.50
2019,10,30,16,33,5.50
2019,10,30,16,34,5.40
2019,10,30,16,35,5.40
2019,10,30,16,36,5.40
2019,10,30,16,37,5.40
2019,10,30,16,38,5.40
2019,10,30,16,39,5.40
2019,10,30,16,40,5.30
2019,10,30,16,41,5.30
2019,10,30,16,42,5.30
2019,10,30,16,43,5.30
2019,10,30,16,44,5.30
2019,10,30,16,45,5.30
2019,10,30,16,46,5.20
2019,10,30,16,47,5.20
2019,10,30,16,48,5.20
2019,10,30,16,49,5.20
2019,10,30,16,50,5.20
2019,10,30,16,51,5.20
2019,10,30,16,52,5.10
2019,10,30,16,53,5.10
2019,10,30,16,54,5.10
2019,10,30,16,55,5.10
2019,10,30,16,56,5.10
2019,10,30,16,57,5.10
2019,10,30,16,58,5.00
2019,10,30,16,59,5.00
2019,10,30,17,00,5.00
2019,10,30,17,01,5.00
2019,10,30,17,02,4.90
2019,10,30,17,03,4.90
2019,10,30,17,04,4.90
2019,10,30,17,05,4.90
2019,10,30,17,06,4.90
2019,10,30,17,07,4.90
2019,10,30,17,08,4.90
2019,10,30,17,09,4.80
2019,10,30,17,10,4.80
2019,10,30,17,11,4.80
2019,10,30,17,12,4.80
2019,10,30,17,13,4.80
2019,10,30,17,14,4.70
2019,10,30,17,15,4.70
2019,10,30,17,16,4.70
2019,10,30,17,17,4.70
2019,10,30,17,18,4.60
2019,10,30,17,19,4.60
2019,10,30,17,20,4.60
2019,10,30,17,21,4.60
2019,10,30,17,22,4.60
2019,10,30,17,23,4.60
2019,10,30,17,24,4.50
2019,10,30,17,25,4.50
2019,10,30,17,26,4.50
2019,10,30,17,27,4.50
2019,10,30,17,28,4.40
2019,10,30,17,29,4.40
2019,10,30,17,30,4.40
2019,10,30,17,31,4.40
2019,10,30,17,32,4.30
2019,10,30,17,33,4.30
2019,10,30,17,34,4.30
2019,10,30,17,35,4.30
2019,10,30,17,36,4.20
2019,10,30,17,37,4.20
2019,10,30,17,38,4.20
2019,10,30,17,39,4.10
2019,10,30,17,40,4.10
2019,10,30,17,41,4.10